FW5282 Weather Reports


Display with metric or nautical units.
time (UTC)temp
F
wind
direction
speed
MPH
gust
MPH
rain 1hr
in
rain 24hr
in
rain mn
in
humidity
%
barometer
mb
20260509120542 77 115 4.0 14.0 0.00 0.00 0.00 53 1010.7
20260509120057 77 173 4.0 13.0 0.00 0.00 0.00 51 1010.8
20260509115543 77 122 8.0 13.0 0.00 0.00 0.00 52 1011.0
20260509115024 77 105 8.0 14.0 0.00 0.00 0.00 51 1011.1
20260509114531 77 77 7.0 14.0 0.00 0.00 0.00 51 1011.0
20260509114101 77 91 3.0 11.0 0.00 0.00 0.00 53 1011.1
20260509113527 76 116 6.0 11.0 0.00 0.00 0.00 53 1011.1
20260509113052 76 113 4.0 10.0 0.00 0.00 0.00 52 1011.1
20260509112607 76 94 4.0 10.0 0.00 0.00 0.00 54 1011.1
20260509112042 76 93 5.0 10.0 0.00 0.00 0.00 53 1011.3
20260509111539 75 68 2.0 9.0 0.00 0.00 0.00 55 1011.3
20260509111100 75 70 4.0 9.0 0.00 0.00 0.00 55 1011.4
20260509110534 75 93 4.0 10.0 0.00 0.00 0.00 58 1011.4
20260509110029 74 109 6.0 10.0 0.00 0.00 0.00 55 1011.6
20260509105530 74 115 5.0 10.0 0.00 0.00 0.00 57 1011.7
20260509105037 74 85 4.0 10.0 0.00 0.00 0.00 55 1011.7
20260509104527 74 113 3.0 8.0 0.00 0.00 0.00 58 1011.8
20260509104029 74 70 2.0 9.0 0.00 0.00 0.00 56 1011.7
20260509103602 74 107 4.0 9.0 0.00 0.00 0.00 56 1011.8
20260509103029 74 58 5.0 9.0 0.00 0.00 0.00 57 1011.8
20260509102539 74 138 5.0 9.0 0.00 0.00 0.00 56 1011.8
20260509102043 73 95 5.0 8.0 0.00 0.00 0.00 59 1012.0
20260509101531 73 102 5.0 9.0 0.00 0.00 0.00 58 1012.0
20260509101040 73 109 4.0 9.0 0.00 0.00 0.00 60 1012.0
20260509100532 73 72 1.0 9.0 0.00 0.00 0.00 59 1012.0
20260509100030 72 92 4.0 9.0 0.00 0.00 0.00 59 1012.0
20260509095545 72 63 5.0 9.0 0.00 0.00 0.00 61 1012.2
20260509095045 72 105 2.0 9.0 0.00 0.00 0.00 62 1012.1
20260509094531 72 116 4.0 10.0 0.00 0.00 0.00 61 1012.1
20260509094033 72 90 4.0 10.0 0.00 0.00 0.00 62 1012.2
20260509093544 71 102 3.0 9.0 0.00 0.00 0.00 63 1012.2
20260509093055 71 112 4.0 10.0 0.00 0.00 0.00 63 1012.3
20260509092537 71 132 3.0 9.0 0.00 0.00 0.00 65 1012.2
20260509092044 71 138 3.0 7.0 0.00 0.00 0.00 64 1012.2
20260509091554 71 104 1.0 6.0 0.00 0.00 0.00 64 1012.3
20260509091039 71 140 2.0 8.0 0.00 0.00 0.00 63 1012.2
20260509090533 70 105 1.0 6.0 0.00 0.00 0.00 67 1012.3
20260509090039 70 82 2.0 6.0 0.00 0.00 0.00 67 1012.3
20260509085529 69 77 1.0 4.0 0.00 0.00 0.00 68 1012.3
20260509085033 69 88 1.0 4.0 0.00 0.00 0.00 70 1012.3
20260509084527 68 86 1.0 3.0 0.00 0.00 0.00 69 1012.3
20260509084056 68 134 1.0 3.0 0.00 0.00 0.00 70 1012.3
20260509083545 67 88 0.0 4.0 0.00 0.00 0.00 71 1012.4
20260509083042 66 125 1.0 4.0 0.00 0.00 0.00 74 1012.6
20260509082530 66 57 0.0 2.0 0.00 0.00 0.00 71 1012.6
20260509082057 67 114 0.0 2.0 0.00 0.00 0.00 71 1012.7
20260509081542 66 111 1.0 3.0 0.00 0.00 0.00 72 1012.8
20260509081038 65 142 1.0 3.0 0.00 0.00 0.00 73 1012.8
20260509080526 65 103 0.0 1.0 0.00 0.00 0.00 75 1012.9
20260509080042 64 83 0.0 1.0 0.00 0.00 0.00 73 1012.9
20260509075531 64 84 1.0 2.0 0.00 0.00 0.00 75 1012.9
20260509075046 63 82 1.0 3.0 0.00 0.00 0.00 77 1013.0
20260509074526 62 92 0.0 3.0 0.00 0.00 0.00 76 1013.0
20260509074029 62 94 0.0 3.0 0.00 0.00 0.00 75 1013.0
20260509073535 62 100 1.0 3.0 0.00 0.00 0.00 77 1013.1
20260509073029 62 124 1.0 3.0 0.00 0.00 0.00 77 1013.0
20260509072535 61 129 1.0 3.0 0.00 0.00 0.00 78 1013.1
20260509072048 60 146 1.0 3.0 0.00 0.00 0.00 78 1013.0
20260509071559 58 136 1.0 3.0 0.00 0.00 0.00 82 1013.1
20260509071058 57 43 0.0 1.0 0.00 0.00 0.00 82 1013.0
20260509070540 57 34 1.0 1.0 0.00 0.00 0.00 83 1013.1
20260509070038 57 48 0.0 1.0 0.00 0.00 0.00 83 1013.1
20260509065542 57 71 0.0 1.0 0.00 0.00 0.00 83 1013.2
20260509065040 57 54 0.0 2.0 0.00 0.00 0.00 82 1013.2
20260509064544 57 96 0.0 2.0 0.00 0.00 0.00 85 1013.2
20260509064026 56 93 1.0 2.0 0.00 0.00 0.00 86 1013.2
20260509063532 55 93 1.0 2.0 0.00 0.00 0.00 88 1013.2
20260509063029 54 63 0.0 1.0 0.00 0.00 0.00 88 1013.2
20260509062530 53 67 1.0 1.0 0.00 0.00 0.00 89 1013.1
20260509062027 53 46 0.0 1.0 0.00 0.00 0.00 90 1013.1
20260509061527 52 59 0.0 1.0 0.00 0.00 0.00 90 1013.1
20260509061052 52 45 0.0 1.0 0.00 0.00 0.00 90 1013.1
20260509060537 52 39 0.0 1.0 0.00 0.00 0.00 90 1013.1
20260509060041 51 15 0.0 1.0 0.00 0.00 0.00 90 1013.1
20260509055542 51 45 0.0 1.0 0.00 0.00 0.00 90 1013.0
20260509055045 51 51 0.0 1.0 0.00 0.00 0.00 90 1013.0
20260509054531 51 21 0.0 1.0 0.00 0.00 0.00 91 1012.9
20260509054055 50 5 0.0 1.0 0.00 0.00 0.00 91 1012.9
20260509053541 50 5 0.0 1.0 0.00 0.00 0.00 92 1012.9
20260509053034 49 360 0.0 1.0 0.00 0.00 0.00 92 1012.9
20260509052539 49 355 0.0 0.0 0.00 0.00 0.00 93 1012.8
20260509052038 49 355 0.0 0.0 0.00 0.00 0.00 93 1012.8
20260509051528 48 355 0.0 0.0 0.00 0.00 0.00 93 1012.7
20260509051032 48 355 0.0 0.0 0.00 0.00 0.00 93 1012.7
20260509050544 48 355 0.0 1.0 0.00 0.00 0.00 93 1012.6
20260509050100 48 355 0.0 1.0 0.00 0.00 0.00 93 1012.6
20260509045545 48 350 0.0 1.0 0.00 0.00 0.00 93 1012.6
20260509045026 47 355 0.0 1.0 0.00 0.00 0.00 93 1012.5
20260509044536 47 5 0.0 1.0 0.00 0.00 0.00 93 1012.5
20260509044032 48 5 0.0 1.0 0.00 0.00 0.00 93 1012.4
20260509043540 48 5 0.0 1.0 0.00 0.00 0.00 93 1012.3
20260509043038 48 5 0.0 1.0 0.00 0.00 0.00 93 1012.3
20260509042542 48 5 0.0 1.0 0.00 0.00 0.00 93 1012.2
20260509042042 48 360 0.0 1.0 0.00 0.00 0.00 93 1012.3
20260509041543 48 341 0.0 2.0 0.00 0.00 0.00 93 1012.3
20260509041029 48 346 0.0 1.0 0.00 0.00 0.00 93 1012.2
20260509040534 48 344 0.0 1.0 0.00 0.00 0.00 93 1012.2
20260509040033 48 344 0.0 1.0 0.00 0.00 0.00 92 1012.3
20260509035537 48 346 0.0 1.0 0.00 0.00 0.00 92 1012.3
20260509035039 48 355 0.0 1.0 0.00 0.00 0.00 92 1012.3
20260509034539 48 350 0.0 1.0 0.00 0.00 0.00 93 1012.3
20260509034037 48 343 0.0 2.0 0.00 0.00 0.00 93 1012.4
20260509033536 48 9 1.0 3.0 0.00 0.00 0.00 93 1012.4
20260509033035 48 355 1.0 3.0 0.00 0.00 0.00 93 1012.4
20260509032542 48 327 0.0 1.0 0.00 0.00 0.00 93 1012.3
20260509032043 48 344 0.0 1.0 0.00 0.00 0.00 92 1012.3
20260509031536 48 350 0.0 2.0 0.00 0.00 0.00 93 1012.3
20260509031034 48 355 1.0 1.0 0.00 0.00 0.00 93 1012.3
20260509030541 48 337 0.0 1.0 0.00 0.00 0.00 92 1012.4
20260509030033 48 337 0.0 1.0 0.00 0.00 0.00 92 1012.4
20260509025606 48 334 0.0 1.0 0.00 0.00 0.00 92 1012.4
20260509025044 48 328 0.0 1.0 0.00 0.00 0.00 92 1012.5
20260509024548 48 333 0.0 1.0 0.00 0.00 0.00 92 1012.5
20260509024026 48 326 0.0 0.0 0.00 0.00 0.00 92 1012.6
20260509023538 48 326 0.0 1.0 0.00 0.00 0.00 92 1012.7
20260509023033 48 326 0.0 1.0 0.00 0.00 0.00 91 1012.7
20260509022540 48 350 0.0 0.0 0.00 0.00 0.00 91 1012.7
20260509022039 49 350 0.0 0.0 0.00 0.00 0.00 91 1012.7
20260509021528 49 350 0.0 0.0 0.00 0.00 0.00 91 1012.7
20260509021028 49 350 0.0 0.0 0.00 0.00 0.00 91 1012.8
20260509020537 49 350 0.0 0.0 0.00 0.00 0.00 91 1012.7
20260509020058 49 350 0.0 0.0 0.00 0.00 0.00 90 1012.7
20260509015542 49 350 0.0 0.0 0.00 0.00 0.00 90 1012.7
20260509015041 49 350 0.0 0.0 0.00 0.00 0.00 90 1012.8
20260509014537 49 350 0.0 0.0 0.00 0.00 0.00 91 1012.7
20260509014036 49 350 0.0 0.0 0.00 0.00 0.00 91 1012.7
20260509013540 49 350 0.0 0.0 0.00 0.00 0.00 91 1012.7
20260509013040 49 350 0.0 0.0 0.00 0.00 0.00 91 1012.7
20260509012542 50 350 0.0 0.0 0.00 0.00 0.00 90 1012.7
20260509012046 50 350 0.0 0.0 0.00 0.00 0.00 90 1012.8
20260509011539 50 350 0.0 0.0 0.00 0.00 0.00 90 1012.8
20260509011040 50 350 0.0 0.0 0.00 0.00 0.00 90 1012.9
20260509010530 50 350 0.0 0.0 0.00 0.00 0.00 89 1013.0
20260509010027 50 350 0.0 0.0 0.00 0.00 0.00 89 1012.9
20260509005534 50 350 0.0 0.0 0.00 0.00 0.00 88 1012.9
20260509005056 50 350 0.0 0.0 0.00 0.00 0.00 88 1013.0
20260509004605 50 350 0.0 0.0 0.00 0.00 0.00 87 1012.9
20260509004040 51 350 0.0 0.0 0.00 0.00 0.00 87 1012.9
20260509003555 51 350 0.0 2.0 0.00 0.00 0.00 87 1013.0
20260509003031 51 360 0.0 2.0 0.00 0.00 0.00 87 1012.9
20260509002553 51 355 1.0 2.0 0.00 0.00 0.00 86 1012.9
20260509002100 51 350 0.0 0.0 0.00 0.00 0.00 86 1013.0
20260509001544 51 355 0.0 0.0 0.00 0.00 0.00 85 1013.0
20260509001045 51 355 0.0 0.0 0.00 0.00 0.00 85 1013.1
20260509000051 51 355 0.0 1.0 0.00 0.00 0.00 84 1013.2
20260508235555 52 355 0.0 1.0 0.00 0.00 0.00 84 1013.2
20260508235033 52 351 0.0 1.0 0.00 0.00 0.00 84 1013.2
20260508234603 52 350 0.0 1.0 0.00 0.00 0.00 84 1013.2
20260508234037 52 350 0.0 1.0 0.00 0.00 0.00 84 1013.2
20260508233526 52 350 0.0 1.0 0.00 0.00 0.00 84 1013.3
20260508233051 52 355 0.0 1.0 0.00 0.00 0.00 84 1013.3
20260508232542 52 335 0.0 1.0 0.00 0.00 0.00 84 1013.4
20260508232039 52 351 0.0 0.0 0.00 0.00 0.00 84 1013.4
20260508231543 52 351 0.0 0.0 0.00 0.00 0.00 84 1013.5
20260508231038 52 351 0.0 0.0 0.00 0.00 0.00 83 1013.5
20260508230541 52 351 0.0 0.0 0.00 0.00 0.00 83 1013.6
20260508230037 52 351 0.0 1.0 0.00 0.00 0.00 83 1013.6
20260508225603 52 351 0.0 1.0 0.00 0.00 0.00 84 1013.6
20260508225028 53 346 0.0 0.0 0.00 0.00 0.00 84 1013.7
20260508224532 53 346 0.0 0.0 0.00 0.00 0.00 83 1013.6
20260508224035 53 346 0.0 0.0 0.00 0.00 0.00 83 1013.7
20260508223540 53 346 0.0 1.0 0.00 0.00 0.00 83 1013.7
20260508223105 53 346 0.0 1.0 0.00 0.00 0.00 82 1013.7
20260508222530 53 350 0.0 1.0 0.00 0.00 0.00 81 1013.6
20260508222032 53 11 0.0 1.0 0.00 0.00 0.00 82 1013.6
20260508221559 53 19 0.0 1.0 0.00 0.00 0.00 81 1013.7
20260508221035 54 10 0.0 1.0 0.00 0.00 0.00 81 1013.6
20260508220539 54 355 0.0 1.0 0.00 0.00 0.00 81 1013.7
20260508220034 54 345 0.0 1.0 0.00 0.00 0.00 81 1013.6
20260508215551 54 355 0.0 1.0 0.00 0.00 0.00 80 1013.5
20260508215031 54 355 0.0 1.0 0.00 0.00 0.00 81 1013.6
20260508214533 54 350 0.0 1.0 0.00 0.00 0.00 81 1013.7
20260508214036 55 348 0.0 1.0 0.00 0.00 0.00 81 1013.7
20260508213551 55 350 0.0 1.0 0.00 0.00 0.00 80 1013.6
20260508213030 55 355 0.0 1.0 0.00 0.00 0.00 79 1013.7
20260508212540 55 355 0.0 1.0 0.00 0.00 0.00 79 1013.7
20260508212104 55 355 0.0 1.0 0.00 0.00 0.00 79 1013.7
20260508211541 55 355 0.0 1.0 0.00 0.00 0.00 79 1013.7
20260508211041 56 27 0.0 1.0 0.00 0.00 0.00 78 1013.7
20260508210527 56 27 0.0 1.0 0.00 0.00 0.00 78 1013.6
20260508210046 56 27 0.0 0.0 0.00 0.00 0.00 78 1013.6
20260508205538 56 27 0.0 0.0 0.00 0.00 0.00 78 1013.5
20260508205036 56 27 0.0 0.0 0.00 0.00 0.00 78 1013.5
20260508204542 57 27 0.0 0.0 0.00 0.00 0.00 76 1013.5
20260508204038 57 37 0.0 0.0 0.00 0.00 0.00 77 1013.5
20260508203543 57 37 0.0 0.0 0.00 0.00 0.00 76 1013.5
20260508203040 57 25 0.0 0.0 0.00 0.00 0.00 75 1013.6
20260508202546 57 25 0.0 0.0 0.00 0.00 0.00 75 1013.5
20260508202050 58 25 0.0 1.0 0.00 0.00 0.00 74 1013.4
20260508201528 58 25 0.0 1.0 0.00 0.00 0.00 73 1013.4
20260508201038 58 34 0.0 1.0 0.00 0.00 0.00 73 1013.2
20260508200545 58 42 0.0 1.0 0.00 0.00 0.00 74 1013.2
20260508200043 59 46 0.0 1.0 0.00 0.00 0.00 72 1013.3
20260508195553 59 39 0.0 1.0 0.00 0.00 0.00 72 1013.2
20260508195035 59 42 1.0 1.0 0.00 0.00 0.00 72 1013.1
20260508194540 59 48 0.0 1.0 0.00 0.00 0.00 71 1013.1
20260508194042 60 47 0.0 2.0 0.00 0.00 0.00 71 1013.0
20260508193550 60 49 1.0 3.0 0.00 0.00 0.00 70 1013.0
20260508193037 60 43 1.0 3.0 0.00 0.00 0.00 70 1013.0
20260508192542 60 55 0.0 1.0 0.00 0.00 0.00 69 1012.9
20260508192043 61 53 0.0 1.0 0.00 0.00 0.00 68 1012.9
20260508191528 61 44 0.0 2.0 0.00 0.00 0.00 68 1012.8
20260508191029 62 36 0.0 2.0 0.00 0.00 0.00 66 1012.7
20260508190537 62 58 1.0 2.0 0.00 0.00 0.00 65 1012.7
20260508190030 62 44 1.0 3.0 0.00 0.00 0.00 64 1012.6
20260508185527 63 44 1.0 3.0 0.00 0.00 0.00 64 1012.6
20260508185036 63 38 1.0 4.0 0.00 0.00 0.00 62 1012.5
20260508184527 63 55 1.0 4.0 0.00 0.00 0.00 61 1012.5
20260508184028 64 42 2.0 4.0 0.00 0.00 0.00 61 1012.4
20260508183530 64 53 2.0 4.0 0.00 0.00 0.00 60 1012.4
20260508183029 64 57 2.0 4.0 0.00 0.00 0.00 59 1012.4
20260508182534 65 48 2.0 5.0 0.00 0.00 0.00 58 1012.4
20260508182041 65 50 2.0 5.0 0.00 0.00 0.00 58 1012.4
20260508181544 65 58 1.0 4.0 0.00 0.00 0.00 58 1012.4
20260508181027 65 46 3.0 5.0 0.00 0.00 0.00 56 1012.4
20260508180548 66 46 2.0 5.0 0.00 0.00 0.00 56 1012.3
20260508180044 66 39 2.0 6.0 0.00 0.00 0.00 56 1012.3
20260508175615 66 36 3.0 6.0 0.00 0.00 0.00 55 1012.2
20260508175050 67 41 2.0 5.0 0.00 0.00 0.00 54 1012.2
20260508174528 67 38 2.0 9.0 0.00 0.00 0.00 53 1012.2
20260508174033 67 54 4.0 9.0 0.00 0.00 0.00 53 1012.1
20260508173537 67 44 2.0 7.0 0.00 0.00 0.00 54 1012.1
20260508173036 67 57 4.0 8.0 0.00 0.00 0.00 53 1012.1
20260508172540 68 40 3.0 8.0 0.00 0.00 0.00 54 1012.1
20260508172105 68 57 3.0 9.0 0.00 0.00 0.00 53 1012.0
20260508171559 68 35 4.0 10.0 0.00 0.00 0.00 52 1012.1
20260508171105 68 43 6.0 10.0 0.00 0.00 0.00 51 1012.0
20260508170537 68 74 4.0 10.0 0.00 0.00 0.00 53 1012.1
20260508170027 69 41 6.0 10.0 0.00 0.00 0.00 50 1012.1
20260508165543 69 49 4.0 9.0 0.00 0.00 0.00 49 1012.1
20260508165026 69 15 4.0 11.0 0.00 0.00 0.00 51 1012.1
20260508164543 69 350 4.0 11.0 0.00 0.00 0.00 51 1012.1
20260508164044 70 40 4.0 10.0 0.00 0.00 0.00 49 1012.0
20260508163550 70 28 5.0 10.0 0.00 0.00 0.00 50 1012.0
20260508163044 70 22 5.0 10.0 0.00 0.00 0.00 49 1012.1
20260508162530 70 45 3.0 11.0 0.00 0.00 0.00 50 1012.1
20260508162033 71 47 4.0 11.0 0.00 0.00 0.00 49 1012.1
20260508161604 71 56 3.0 8.0 0.00 0.00 0.00 50 1012.1
20260508161024 70 51 3.0 9.0 0.00 0.00 0.00 50 1012.1
20260508160540 70 44 5.0 9.0 0.00 0.00 0.00 50 1012.1
20260508160029 71 10 4.0 10.0 0.00 0.00 0.00 49 1012.1
20260508155536 71 51 5.0 10.0 0.00 0.00 0.00 51 1012.2
20260508155036 71 54 4.0 8.0 0.00 0.00 0.00 48 1012.1
20260508154546 71 16 3.0 7.0 0.00 0.00 0.00 48 1012.2
20260508154030 71 42 3.0 9.0 0.00 0.00 0.00 47 1012.1
20260508153536 71 48 5.0 9.0 0.00 0.00 0.00 47 1012.2
20260508153038 71 37 2.0 6.0 0.00 0.00 0.00 47 1012.2
20260508152527 71 55 3.0 10.0 0.00 0.00 0.00 48 1012.2
20260508152028 71 42 4.0 10.0 0.00 0.00 0.00 48 1012.2
20260508151540 71 50 5.0 10.0 0.00 0.00 0.00 48 1012.2
20260508151029 71 69 0.0 12.0 0.00 0.00 0.00 50 1012.2
20260508150542 72 39 5.0 12.0 0.00 0.00 0.00 47 1012.2
20260508150036 72 69 1.0 7.0 0.00 0.00 0.00 48 1012.2
20260508145542 71 37 2.0 7.0 0.00 0.00 0.00 49 1012.2
20260508145042 71 17 1.0 3.0 0.00 0.00 0.00 43 1012.2
20260508144548 71 38 1.0 7.0 0.00 0.00 0.00 43 1012.3
20260508144027 71 34 3.0 7.0 0.00 0.00 0.00 43 1012.3
20260508143533 72 69 3.0 8.0 0.00 0.00 0.00 48 1012.3
20260508143031 71 76 3.0 7.0 0.00 0.00 0.00 48 1012.3
20260508142542 71 18 2.0 7.0 0.00 0.00 0.00 48 1012.3
20260508142043 71 19 2.0 9.0 0.00 0.00 0.00 47 1012.3
20260508141535 71 34 4.0 9.0 0.00 0.00 0.00 49 1012.4
20260508141031 71 21 3.0 10.0 0.00 0.00 0.00 45 1012.4
20260508140536 71 26 2.0 11.0 0.00 0.00 0.00 47 1012.5
20260508140032 71 52 6.0 11.0 0.00 0.00 0.00 47 1012.4
20260508135535 71 21 3.0 9.0 0.00 0.00 0.00 47 1012.4
20260508135037 71 17 4.0 9.0 0.00 0.00 0.00 45 1012.5
20260508134544 71 46 4.0 9.0 0.00 0.00 0.00 46 1012.5
20260508134053 71 57 4.0 10.0 0.00 0.00 0.00 49 1012.5
20260508133535 71 43 6.0 10.0 0.00 0.00 0.00 47 1012.5
20260508133035 71 37 1.0 10.0 0.00 0.00 0.00 46 1012.5
20260508132602 70 75 3.0 9.0 0.00 0.00 0.00 49 1012.6
20260508132043 71 37 3.0 10.0 0.00 0.00 0.00 46 1012.5
20260508131542 71 44 2.0 10.0 0.00 0.00 0.00 45 1012.5
20260508131044 71 99 3.0 9.0 0.00 0.00 0.00 48 1012.6
20260508130541 71 61 3.0 9.0 0.00 0.00 0.00 49 1012.6
20260508130035 70 117 3.0 9.0 0.00 0.00 0.00 50 1012.6
20260508125540 70 84 2.0 10.0 0.00 0.00 0.00 49 1012.6
20260508125043 70 64 2.0 10.0 0.00 0.00 0.00 49 1012.6
20260508124528 70 45 4.0 9.0 0.00 0.00 0.00 49 1012.6
20260508124043 70 59 3.0 11.0 0.00 0.00 0.00 49 1012.6
20260508123546 70 52 2.0 12.0 0.00 0.00 0.00 52 1012.7
20260508123037 69 47 4.0 11.0 0.00 0.00 0.00 51 1012.7
20260508122543 69 45 6.0 11.0 0.00 0.00 0.00 52 1012.7
20260508122042 69 45 2.0 8.0 0.00 0.00 0.00 52 1012.8
20260508121545 69 44 3.0 12.0 0.00 0.00 0.00 52 1012.8